TIME,DELAY(SENSOR),PRES,OXYGEN,RAWTEMP,T(OPTODE),TCPHASE,FLUOR,BETA(BETA700),BETA(BETA412),BETA(BETA440),CDOM,C(CSC),ED(ED412.20),ED(ED444.00),ED(ED489.60),ED(ED554.30),LU(LU412.10),LU(LU443.90),LU(LU489.70),LU(LU554.70),COMP,TILTX,TILTY,CHECK
1342668283,5808,898.5000000000000000,38.0657081604003900,556.4536743164062000,4.5957489013671875,55.7651901245117200,55,100,102,76,83,15565,0,0,0,0,2147119981,2147774555,2147572580,2147571474,3146,3,13,28904
1342671879,5809,978.8800048828125000,42.1402702331543000,565.8588256835938000,4.3041758537292480,55.2559089660644500,55,100,100,78,83,15562,0,0,0,0,2147126976,2147768612,2147568009,2147571062,430,3,13,50645
1342675479,5813,991.2800292968750000,43.4343605041503900,568.2537841796875000,4.2298130989074710,55.0921707153320300,55,100,100,77,84,15560,0,0,0,0,2147126134,2147773184,2147571392,2147568365,5,3,13,65496
1342679079,5810,997.3400268554688000,43.3759193420410160,569.2014770507812000,4.2003731727600100,55.1091194152832000,54,100,101,77,83,15545,0,0,0,0,2147123721,2147772132,2147577700,2147569499,44,3,13,48934
1342682679,5810,995.6799926757812000,43.2877082824707000,569.5175170898438000,4.1905541419982910,55.1287498474121100,55,99,101,79,83,15547,0,0,0,0,2147123602,2147775798,2147572726,2147573211,30,3,13,3069
1342686279,5808,1002.6799926757812000,43.0756912231445300,569.7092285156250000,4.1845970153808590,55.1614685058593750,56,99,102,80,83,15548,0,0,0,0,2147124150,2147776155,2147570733,2147573321,3596,3,13,55910
1342689879,5811,1000.5100097656250000,42.9557800292968750,570.4995117187500000,4.1600399017333980,55.1836891174316400,56,99,102,78,82,15551,0,0,0,0,2147124708,2147778825,2147576402,2147570797,34,3,13,11242
1342693479,5810,1001.9000244140625000,43.2649192810058600,571.3692016601562000,4.1330051422119140,55.1523094177246100,54,100,100,78,83,15544,0,0,0,0,2147124224,2147778514,2147574637,2147569307,192,3,13,44680
1342697079,5812,1009.8200073242188000,43.0111503601074200,569.9141845703125000,4.1782250404357910,55.1731491088867200,55,99,100,79,82,15554,0,0,0,0,2147120045,2147777088,2147575789,2147570386,99,3,13,52835
1342700679,5808,1011.1699829101562000,42.6856002807617200,569.9262695312500000,4.1778531074523930,55.2165985107421900,55,100,101,78,82,15553,0,0,0,0,2147124745,2147770185,2147571812,2147572544,97,3,13,54778
1342704279,5810,1011.6400146484375000,42.5738792419433600,571.0437011718750000,4.1431241035461430,55.2473106384277340,55,99,103,78,82,15551,0,0,0,0,2147120265,2147775277,2147578139,2147572498,50,3,13,34408
1342707879,5809,1011.1500244140625000,42.6663894653320300,569.9418945312500000,4.1773657798767090,55.2184982299804700,55,100,100,77,83,15548,0,0,0,0,2147123885,2147777645,2147572827,2147572059,257,3,13,3744
1342711479,5809,1015.7600097656250000,42.6306686401367200,569.5830078125000000,4.1885190010070800,55.2187004089355500,55,100,101,78,83,15551,0,0,0,0,2147122614,2147777837,2147572214,2147570907,3576,3,13,419
1342715079,5811,1013.0900268554688000,42.5259399414062500,569.6198120117188000,4.1873760223388670,55.2385406494140600,55,99,102,78,82,15550,0,0,0,0,2147122688,2147774756,2147577782,2147573046,3210,3,13,37562
1342718679,5810,1014.4199829101562000,42.3895111083984400,570.3820800781250000,4.1636848449707030,55.2692489624023440,54,100,102,77,82,15548,0,0,0,0,2147121280,2147774016,2147570770,2147573677,2349,3,13,58935
1342722279,5807,1016.0900268554688000,42.8191795349121100,570.0521850585938000,4.1739392280578610,55.2033309936523440,55,97,101,78,83,15546,0,0,0,0,2147122176,2147773915,2147569792,2147573366,723,3,13,15242
1342725879,5811,1009.9000244140625000,42.3562812805175800,569.8408203125000000,4.1805081367492680,55.2659797668457000,54,101,102,79,83,15543,0,0,0,0,2147126089,2147774034,2147572425,2147571620,3457,3,13,5155
1342729479,5809,1006.1099853515625000,42.9075088500976560,571.8225708007812000,4.1189079284667970,55.2034301757812500,55,98,102,77,83,15554,0,0,0,0,2147125641,2147778669,2147572800,2147571282,2746,3,13,57725
1342733079,5808,1015.8499755859375000,43.6454811096191400,572.0145263671875000,4.1129441261291500,55.1039390563964840,54,101,100,79,82,15550,0,0,0,0,2147123885,2147774345,2147573312,2147570203,3494,3,13,3632
1342736679,5810,1010.7399902343750000,42.9203109741210940,571.1027832031250000,4.1412868499755860,55.1941986083984400,56,100,100,77,82,15552,0,0,0,0,2147121920,2147772973,2147571181,2147570605,3419,3,13,7588
1342740279,5811,1018.8499755859375000,43.4152908325195300,571.6367187500000000,4.1246891021728520,55.1347808837890600,55,100,101,78,83,15550,0,0,0,0,2147124626,2147777051,2147577206,2147571181,184,3,13,60387
1342743879,5809,1026.3900146484375000,42.7599411010742200,569.7938232421875000,4.1819667816162110,55.2076492309570300,55,99,101,79,83,15550,0,0,0,0,2147123556,2147776813,2147572086,2147573540,3412,3,13,44325
1342747479,5808,1023.5800170898438000,42.0524597167968750,569.4050292968750000,4.1940498352050780,55.3047599792480500,54,100,101,79,83,15546,0,0,0,0,2147122761,2147777298,2147575652,2147572379,3359,3,13,42162
1342751079,5813,1025.7600097656250000,42.5309104919433600,569.4777221679688000,4.1917901039123535,55.2349510192871100,56,99,101,78,83,15546,0,0,0,0,2147122706,2147772288,2147571867,2147569060,3470,3,13,43669
1342754679,5808,1021.3499755859375000,41.7457695007324200,569.1279907226562000,4.2026557922363280,55.3472404479980500,55,98,101,80,83,15546,0,0,0,0,2147124790,2147771565,2147575670,2147572589,594,3,13,51583
1342758279,5810,1021.4400024414062000,42.2681198120117200,569.4597167968750000,4.1923480033874510,55.2759208679199200,56,110,100,78,84,15547,0,0,0,0,2147121709,2147775332,2147573778,2147571154,283,3,13,22845
1342761879,5809,1021.3599853515625000,42.0354118347168000,569.8713989257812000,4.1795578002929690,55.3118400573730500,54,101,102,79,83,15547,0,0,0,0,2147123282,2147774043,2147573202,2147571766,388,3,13,14637
1342765479,5807,1023.3499755859375000,42.4732284545898440,569.5410156250000000,4.1898231506347660,55.2480583190918000,55,99,100,78,84,15544,0,0,0,0,2147125705,2147769188,2147575021,2147571602,263,3,13,41973
1342769079,5812,1018.8099975585938000,41.6635208129882800,570.2628784179688000,4.1673908233642580,55.3732490539550800,55,99,102,79,82,15545,0,0,0,0,2147124754,2147776338,2147577508,2147568621,3233,3,13,13553
1342772679,5810,1016.4099731445312000,43.0604782104492200,571.5897827148438000,4.1261439323425290,55.1836090087890600,55,98,102,78,83,15546,0,0,0,0,2147121280,2147773065,2147571794,2147571419,3471,3,13,48307
1342776279,5807,1016.2399902343750000,42.9411582946777340,572.0302734375000000,4.1124501228332520,55.2030601501464840,56,101,101,78,83,15545,0,0,0,0,2147119872,2147777718,2147574089,2147571245,128,3,13,17001
1342779879,5811,1010.8900146484375000,42.5882911682128900,572.1068115234375000,4.1100711822509770,55.2572593688964840,55,102,102,78,84,15544,0,0,0,0,2147122541,2147780388,2147574162,2147574692,3095,3,13,11267
1342783479,5809,1013.4099731445312000,43.4023704528808600,573.1301879882812000,4.0782451629638670,55.1469688415527340,56,98,100,79,83,15543,0,0,0,0,2147123776,2147774957,2147577225,2147569280,208,3,13,46623
1342787079,5809,1023.5800170898438000,43.2970390319824200,572.1245117187500000,4.1095218658447270,55.1517181396484400,55,100,101,80,83,15540,0,0,0,0,2147123017,2147771501,2147577216,2147570313,3401,3,13,31286
1342790679,5813,1025.0799560546875000,43.6627006530761700,571.6151123046875000,4.1253600120544430,55.0969581604003900,55,101,102,78,83,15542,0,0,0,0,2147122569,2147775917,2147573952,2147572242,90,3,13,30174
1342794279,5810,1025.4100341796875000,42.5787887573242200,570.7025146484375000,4.1537280082702640,55.2451896667480500,56,97,101,78,82,15540,0,0,0,0,2147120987,2147775314,2147573302,2147572964,374,3,13,5487
1342797879,5811,1023.4500122070312000,43.0736503601074200,571.1254882812500000,4.1405792236328125,55.1773490905761700,56,102,101,79,83,15542,0,0,0,0,2147123017,2147777161,2147571958,2147571702,11,3,13,58259
1342801479,5809,1025.9799804687500000,42.4409790039062500,570.7136230468750000,4.1533827781677250,55.2616310119628900,54,98,101,76,83,15543,0,0,0,0,2147119798,2147771977,2147574692,2147574244,136,3,13,34370
1342805079,5809,1024.6700439453125000,42.2252693176269500,570.1561889648438000,4.1707081794738770,55.2859802246093750,54,98,100,78,83,15538,0,0,0,0,2147117741,2147773778,2147572717,2147570550,3188,3,13,41692
1342808679,5810,1028.4100341796875000,42.6071090698242200,569.6301879882812000,4.1870498657226560,55.2290306091308600,56,99,100,79,82,15542,0,0,0,0,2147122688,2147777746,2147575350,2147572937,3521,3,13,54675
1342812279,5810,1027.0200195312500000,41.8145217895507800,570.3516235351562000,4.1646327972412110,55.3491096496582000,55,99,100,80,83,15542,0,0,0,0,2147122733,2147776978,2147572553,2147572800,378,3,13,11132
1342812380,5807,1026.9100341796875000,41.8523712158203100,570.2592773437500000,4.1675028800964355,55.3451805114746100,55,101,100,80,83,15539,0,0,0,0,2147120018,2147774217,2147572059,2147571136,290,3,13,16129
